Regional Weather Roundup
Issued by NWS Northern Indiana

Home | Current Version | Previous Version | Graphics & Text | Print | Product List | Glossary On
Versions: 1 2 3 4 5 6 7 8 9 10 11 12 13 14 15 16 17 18 19 20 21 22 23 24 25 26 27 28 29 30 31 32 33 34 35 36 37 38 39 40 41 42 43 44 45 46 47 48 49 50
000
ASUS43 KIWX 070310
RWRIWX

KIWX WEATHER ROUNDUP
NATIONAL WEATHER SERVICE NORTHERN INDIANA
1000 PM EST TUE DEC 06 2016

NOTE: "FAIR" INDICATES FEW OR NO CLOUDS BELOW 12,000 FEET WITH NO
SIGNIFICANT WEATHER AND/OR OBSTRUCTIONS TO VISIBILITY.

* THESE STATIONS ARE NOT UNDER NWS QUALITY CONTROL. THEY ALSO MAY NOT
  REPORT WEATHER SUCH AS PRECIPITATION OR FOG.

INZ001>027-070400-
NORTHERN INDIANA

CITY           SKY/WX    TMP DP  RH WIND       PRES   REMARKS
GARY*          CLEAR     32  25  74 W24       29.96R WCI  19
VALPARAISO     CLEAR     31  22  69 W21G30    29.95R WCI  18
MICHIGAN CITY* PTCLDY    32  25  74 W14G22    29.94R WCI  22
LAPORTE*       CLEAR     32  29  88 W14G23    29.94R WCI  22
KNOX*          CLEAR     30   9  40 W13G20    29.95R WCI  20
SOUTH BEND     PTCLDY    30  24  78 W15       29.91R WCI  19
GOSHEN         MOCLDY    32  26  78 W15       29.91R WCI  22
MONTICELLO*    CLEAR     32  24  72 W13       29.97R WCI  22
LOGANSPORT*    CLEAR     32  28  86 W12G17    29.97R WCI  23
ROCHESTER*     CLEAR     34  28  80 W10G20    29.95R WCI  26
WARSAW*        CLOUDY    32  27  80 W15G23    29.92R WCI  22
ANGOLA*        CLOUDY    34  32  93 W12       29.85R WCI  25
FORT WAYNE     MOCLDY    33  28  81 W14       29.91R WCI  23
HUNTINGTON*    CLOUDY    33  28  84 W9G21     29.91S WCI  25
PERU/GRISSOM   CLEAR     32  28  86 W13       29.94R WCI  22
MARION*        MOCLDY    32  29  88 W16       29.96R FOG     WCI  21

$$
INZ028>050-070400-
CENTRAL INDIANA

CITY           SKY/WX    TMP DP  RH WIND       PRES   REMARKS
LAFAYETTE      CLEAR     31  29  92 W8        29.99R WCI  23
KOKOMO*        PTCLDY    32  29  88 W15       29.96R WCI  22
MUNCIE*        MOCLDY    34  29  82 W10       29.95R WCI  26
INDIANAPOLIS   PTCLDY    32  29  88 W8        29.99R WCI  25

$$
MIZ043>046-050>051-056>058-064>065-071>073-077>080-070400-
SOUTHWEST LOWER MICHIGAN

CITY           SKY/WX    TMP DP  RH WIND       PRES   REMARKS
BATTLE CREEK   PTCLDY    35  29  78 W17G23    29.83R WCI  25
BENTON HARBOR  CLOUDY    34  25  69 W26G33    29.90R WCI  21
COLDWATER*     CLOUDY    35  31  85 W13       29.84R WCI  26
HILLSDALE*     CLOUDY    34  32  93 W13G20    29.81R WCI  25
HOLLAND        CLOUDY    36  27  69 W21G31    29.83R
GRAND RAPIDS   MOCLDY    35  26  69 W21       29.82R WCI  24
KALAMAZOO      PTCLDY    35  27  72 W13       29.85R WCI  26
STURGIS*       CLOUDY    35  30  83 W13G18    29.86R WCI  26
THREE RIVERS*  CLOUDY    34  28  76 W13G24    29.87R WCI  25

$$
OHZ001>008-015>018-024>025-070400-
NORTHWEST OHIO

CITY           SKY/WX    TMP DP  RH WIND       PRES   REMARKS
WAUSEON*       FAIR      36  34  93 W14       29.83R
DEFIANCE       PTCLDY    37  31  78 W10       29.88R
FINDLAY        CLOUDY    37  33  85 W15       29.86R FOG
TOLEDO EXPRESS CLOUDY    37  35  92 W10       29.83R
TOLEDO METCALF MOCLDY    38  36  92 SW12      29.84R FOG
LIMA           CLOUDY    36  34  92 W18       29.88R

$$
AND FOR LAKE MICHIGAN COASTAL AND OPEN LAKE BUOY OBSERVATIONS

STATION/POSITION TEMP    WIND        PRES    VSBY  WAVE
                 AIR SEA DIR/SP/G                  HT/PER
                 (F)     (DEG/KT/KT) (MB)    (MI)  (FT/S)
BURNS HARBOR      34     260/ 28     1013.5R
SAINT JOSEPH      38     250/ 21/ 26 1011.5

$$
&&



USA.gov is the U.S. government's official web portal to all federal, state and local government web resources and services.